Probability
1 2 2 2 2 1 0 0 0 0 0 0 0 0 0 0 0 0 0 0 0 0 0 0 1 3 4 5 4 2 2 3 2 2 2 1 0 0 0 0 0 0 0
0 1 1 2 2 1 0 0 0 0 0 0 0 0 0 0 0 0 0 0 0 0 0 0 1 4 4 5 5 4 2 2 1 1 2 2 1 0 0 0 0 0 0
0 0 0 1 1 0 0 0 0 0 0 0 0 0 0 0 0 0 0 0 0 0 0 0 2 4 5 5 6 5 4 3 1 1 3 3 2 1 0 0 0 0 0
0 0 0 0 0 0 0 0 0 0 0 0 0 0 0 0 0 0 0 0 0 0 0 0 2 3 4 4 5 6 5 4 3 3 3 3 3 1 0 0 0 0 0
0 0 0 0 0 0 0 0 0 0 0 0 0 0 0 0 0 0 0 0 0 0 0 0 1 2 3 3 4 5 6 5 4 4 4 4 4 3 1 0 0 1 1
0 0 0 0 0 0 0 0 0 0 0 0 0 0 0 0 0 0 0 0 0 1 1 1 0 1 2 3 4 4 5 5 4 4 3 4 5 4 2 1 2 3 3
0 0 0 0 0 0 0 0 0 0 0 0 0 0 0 0 0 0 0 0 1 2 2 1 0 1 1 2 3 4 4 4 4 4 3 4 5 5 2 2 3 4 4
0 0 0 0 0 0 0 0 0 0 0 0 0 0 0 0 0 0 0 0 1 2 2 1 0 0 0 1 2 2 2 3 4 4 4 5 5 4 3 2 2 2 3
4 4 2 0 0 0 0 0 0 0 0 1 1 1 1 0 0 0 0 0 1 1 1 0 0 0 0 0 1 1 1 1 2 3 5 5 4 3 3 3 2 2 2
8 7 5 2 1 0 0 1 1 1 1 2 3 2 2 1 1 1 1 0 0 0 0 0 0 0 0 0 0 0 0 0 1 1 3 4 4 3 4 5 5 4 3
7 6 5 4 2 1 1 2 2 2 3 4 4 3 3 3 3 4 3 2 2 1 0 0 0 0 0 0 0 0 0 0 0 0 1 2 3 4 5 5 6 5 4
4 4 4 4 3 3 3 3 3 3 3 4 3 3 4 4 5 5 5 4 3 1 0 0 0 0 0 0 0 0 0 0 0 0 0 1 2 3 4 4 4 4 3
4 4 3 3 3 3 3 3 3 3 3 3 3 3 3 4 4 4 5 4 3 1 0 0 0 0 0 0 0 0 0 0 0 0 0 0 1 3 4 4 4 4 3
4 4 3 3 3 3 3 3 3 3 3 3 3 3 3 3 4 4 4 4 3 1 1 0 0 0 0 0 0 0 0 0 0 0 0 0 1 3 5 5 6 5 4
5 4 3 3 3 3 3 3 3 3 3 3 3 4 4 4 5 4 4 4 3 3 2 1 0 0 0 0 0 0 0 0 0 0 0 0 1 3 4 5 6 5 4
6 5 4 4 4 4 4 4 4 3 3 3 4 4 5 6 7 6 5 4 4 3 3 2 1 0 0 0 0 0 0 0 0 0 0 0 1 2 3 3 3 3 3
9 8 6 6 6 6 6 6 5 4 4 4 4 4 5 7 8 9 8 6 6 5 5 4 1 0 0 0 0 0 0 0 0 0 0 0 0 1 1 1 1 1 1
10 9 7 6 6 6 6 6 6 6 6 5 4 4 5 6 8 10 10 9 9 8 7 5 2 0 0 0 0 0 0 0 0 0 0 0 0 0 0 0 0 0 0
9 8 7 6 6 6 6 6 6 6 6 6 6 5 5 5 6 7 8 9 9 9 9 7 4 1 0 0 0 0 0 0 0 0 0 0 0 0 0 0 0 0 0
8 7 7 6 6 6 6 6 6 6 6 6 5 5 4 4 4 4 5 6 8 9 10 9 5 2 0 0 0 0 0 0 0 0 0 0 0 0 0 0 0 0 0
7 7 6 6 6 6 5 4 4 5 5 5 5 5 5 5 4 3 2 3 6 8 9 9 7 4 2 0 0 0 0 0 0 0 0 0 0 0 0 0 0 0 0
6 6 6 5 5 4 3 2 3 5 6 6 6 6 6 6 5 2 1 1 2 5 6 7 8 6 4 2 1 0 0 0 0 1 0 0 0 0 0 0 0 0 0
4 4 4 4 3 3 1 1 2 5 7 7 7 7 7 7 6 4 2 1 1 2 3 5 6 7 6 4 3 2 1 0 0 1 1 0 0 0 0 0 0 0 0
2 3 3 3 3 1 0 0 1 3 6 8 8 8 8 7 6 5 5 4 2 1 2 3 4 6 5 4 5 4 3 1 0 0 1 0 0 0 0 0 0 0 0
2 3 3 3 2 1 0 0 0 2 5 7 8 7 5 4 3 3 4 5 4 2 2 2 3 4 4 3 3 4 4 2 0 0 0 0 0 0 0 0 0 0 0
3 3 3 3 1 0 0 0 0 2 5 7 7 5 2 1 1 1 3 4 4 3 2 2 3 3 3 3 2 4 5 4 1 0 0 0 0 0 0 0 0 0 0
Wind_Speed
1 1 1 1 1 1 1 1 1 1 1 1 1 2 2 2 2 2 2 4 5 6 6 6 7 7 6 6 6 6 6 7 7 8 8 8 8 8 9 9 8 8 8
2 1 1 1 0 1 1 1 2 2 1 1 1 1 2 2 2 2 2 3 5 6 6 7 7 7 7 6 5 6 6 6 6 7 7 7 7 8 9 9 9 9 9
2 2 1 1 1 1 1 1 1 1 1 1 1 1 1 2 2 2 2 2 3 5 6 6 7 7 7 6 6 6 5 5 5 6 6 6 7 7 8 8 9 9 9
3 2 1 1 1 1 1 1 1 1 0 0 1 1 1 1 2 2 2 2 2 3 4 6 6 6 7 7 6 6 5 4 4 4 5 5 6 6 6 7 7 7 7
3 2 2 1 1 1 1 1 1 1 1 0 1 1 1 1 1 2 2 2 2 3 3 4 6 6 7 7 6 5 4 3 3 4 4 5 5 5 5 6 6 6 7
2 2 2 1 2 1 1 1 1 1 1 1 1 1 1 1 1 1 2 2 2 3 3 4 3 4 5 5 5 5 4 3 3 4 4 5 5 5 5 5 6 6 6
2 2 1 1 2 2 2 2 1 1 0 0 0 1 2 1 1 1 1 1 2 3 3 2 2 2 2 3 3 4 3 3 4 4 4 4 4 3 3 4 4 5 5
2 2 2 2 2 2 1 1 1 1 0 1 1 1 2 3 2 1 1 1 2 2 2 2 1 1 1 1 2 3 3 4 3 3 3 4 3 3 3 3 4 4 5
2 2 2 2 2 2 2 2 2 2 2 1 1 2 1 1 2 2 1 1 1 1 1 1 1 1 1 1 1 2 2 2 3 3 3 3 3 2 2 3 3 4 5
1 2 2 3 3 2 2 3 3 2 3 2 1 1 1 2 1 2 2 2 2 1 2 1 1 1 1 1 1 1 2 2 2 2 2 3 4 3 3 3 4 4 5
1 1 1 2 2 2 3 2 2 2 3 2 2 1 1 1 1 1 2 3 2 2 1 1 1 1 1 1 1 1 1 1 1 0 2 3 3 3 3 3 4 4 4
1 1 1 2 2 2 2 2 3 3 3 2 2 2 2 2 2 2 2 2 2 2 2 1 1 1 1 1 1 1 0 1 1 0 1 2 4 3 3 3 3 3 3
1 2 2 2 2 2 3 2 2 3 3 3 3 2 2 2 2 2 2 1 1 2 2 1 1 1 1 0 1 1 1 0 0 0 0 1 3 3 3 3 3 2 2
2 2 2 2 2 2 3 2 2 3 2 3 3 3 2 2 2 2 2 2 1 1 1 2 1 1 1 1 1 1 0 1 0 0 0 0 1 2 2 2 2 2 2
1 1 2 2 2 2 2 2 2 3 2 2 2 3 2 2 2 2 2 2 2 2 2 1 1 1 1 1 1 0 0 0 1 0 1 1 1 2 2 2 2 2 2
1 1 2 2 2 2 2 2 2 2 1 2 2 2 2 1 1 1 2 2 2 2 2 1 1 1 1 1 1 0 0 1 1 1 1 1 1 2 2 2 2 2 2
1 1 2 2 2 2 1 2 2 1 2 2 2 2 2 1 1 1 1 1 1 2 2 1 0 0 1 1 1 1 0 0 0 1 1 1 1 1 1 1 2 1 2
1 1 1 1 2 2 2 2 2 2 2 2 2 2 2 2 2 1 2 2 2 2 2 2 1 0 1 1 1 0 0 0 1 0 0 1 1 1 1 1 1 1 1
1 0 0 1 1 1 1 2 2 2 2 3 3 3 3 2 2 1 2 2 2 2 2 2 1 1 0 0 0 1 1 1 1 0 1 1 1 1 1 1 1 1 1
1 1 1 2 1 1 1 2 2 2 2 2 2 3 3 3 3 3 2 2 2 2 2 2 1 1 1 1 0 0 1 1 1 1 1 0 0 1 1 1 1 1 2
2 1 1 1 1 1 2 2 2 2 2 2 2 2 2 2 3 3 2 2 3 2 2 2 2 1 1 1 1 1 1 1 1 1 1 1 1 1 1 2 1 1 2
1 1 2 2 2 2 2 3 2 2 2 2 2 2 2 2 2 3 3 4 5 4 4 3 2 3 3 3 2 2 1 1 2 1 1 1 0 1 1 1 2 2 2
1 1 1 2 2 3 3 3 3 2 2 2 2 2 2 2 1 2 2 2 3 4 5 5 4 5 5 4 4 3 3 3 2 1 1 1 1 2 2 2 2 2 2
1 1 2 2 2 3 3 3 2 1 1 2 2 2 2 2 2 2 1 1 2 2 3 4 4 5 4 4 5 4 3 2 1 1 1 2 1 2 2 2 2 2 2
2 2 2 2 2 3 3 3 2 1 1 2 2 2 2 3 3 2 2 2 2 3 2 3 4 4 4 5 4 3 3 2 2 2 1 2 1 2 2 1 1 2 3
2 2 2 2 3 3 3 2 2 1 1 2 2 2 3 3 3 2 2 2 3 4 2 2 2 2 2 3 5 5 4 3 2 2 2 2 1 1 1 1 1 1 1
Wind_Direction
127 110 104 102 111 122 143 141 143 151 159 176 194 194 206 216 229 234 247 248 245 247 251 247 243 240 238 237 239 245 241 233 225 222 224 224 225 223 223 221 221 221 224
131 123 117 123 143 156 157 153 154 157 169 183 211 219 225 226 237 244 249 260 257 255 257 254 251 249 248 247 246 257 253 239 232 226 224 224 226 225 226 225 224 223 226
148 145 141 166 192 162 149 130 121 125 151 181 233 248 245 243 242 245 247 252 263 262 262 261 257 256 253 250 248 256 259 242 229 226 224 222 225 226 227 230 228 225 227
158 151 161 195 176 142 140 142 140 128 148 175 246 268 265 258 246 243 246 253 261 272 273 272 267 262 258 254 251 252 250 238 222 223 223 222 223 224 225 228 227 225 224
166 157 178 194 160 139 148 172 138 154 180 220 247 264 283 270 259 256 249 255 261 268 275 282 276 270 261 259 257 252 244 230 219 228 233 230 229 228 226 225 222 220 214
176 161 171 173 154 149 162 167 163 155 183 224 264 308 310 287 259 253 254 264 267 267 269 278 280 273 264 264 265 258 247 225 222 242 245 240 234 229 226 227 222 219 213
172 161 175 168 164 176 190 179 167 165 185 144 73 339 325 301 260 253 254 263 277 279 280 281 288 281 271 267 267 259 251 245 238 245 237 230 226 223 223 222 219 211 204
178 177 178 179 180 181 179 174 163 160 176 129 134 88 345 340 335 319 283 264 287 297 294 286 283 269 268 262 273 265 264 257 250 247 232 223 210 206 211 216 206 203 193
192 188 182 179 181 181 194 197 182 175 187 183 143 142 150 264 308 320 312 321 323 311 308 311 299 287 273 268 275 277 271 289 271 263 246 212 186 186 188 183 170 173 175
219 198 183 181 189 191 196 205 188 186 177 196 199 190 180 173 198 310 321 330 331 323 316 319 324 315 298 267 274 291 301 323 305 269 216 167 159 157 155 160 168 172 171
239 220 186 180 195 197 200 205 192 191 190 195 195 188 186 186 196 213 292 321 333 320 308 294 310 332 317 299 278 309 307 283 311 163 161 165 163 158 158 160 166 169 175
256 245 217 203 206 209 210 205 201 202 205 200 199 195 183 184 197 191 235 282 297 303 311 316 319 311 309 323 293 350 300 199 220 105 100 174 169 157 157 156 165 178 189
245 251 238 225 222 224 222 207 195 205 204 200 204 209 206 213 191 180 191 234 271 292 307 301 297 304 313 314 290 346 35 92 155 218 169 155 179 169 165 163 179 190 198
241 248 240 240 239 235 227 206 207 215 201 207 216 214 217 225 209 198 190 187 240 297 296 286 323 325 331 323 355 39 51 79 123 147 93 84 150 166 157 169 190 201 204
243 243 241 240 241 234 231 209 217 226 209 212 221 222 227 231 216 214 204 197 196 235 271 269 287 322 337 339 6 10 235 354 83 109 63 67 87 150 166 177 195 200 194
262 248 238 237 241 239 234 215 231 234 210 223 208 208 226 232 211 202 199 205 202 203 238 262 260 304 327 3 36 13 193 60 84 87 79 72 97 104 158 170 188 197 188
236 248 243 237 240 243 236 219 224 212 209 229 216 201 222 220 209 200 184 176 178 180 211 262 263 328 348 351 357 353 358 188 262 106 89 78 94 114 115 184 187 193 188
232 239 233 240 241 234 220 217 226 217 212 224 231 219 227 217 217 211 190 192 197 190 193 225 259 287 287 282 319 336 359 286 250 130 111 128 139 134 107 105 152 189 196
229 279 223 232 240 229 212 219 212 216 220 230 232 227 232 205 218 221 210 207 207 195 184 195 227 233 259 283 343 329 340 310 282 262 211 202 184 163 147 125 137 165 189
193 231 232 233 234 241 226 219 206 208 226 241 238 235 236 219 222 219 218 212 193 180 177 184 201 218 228 241 209 284 319 309 295 319 325 286 192 175 186 185 182 181 191
207 210 223 239 239 238 237 218 207 215 217 229 248 250 242 228 223 215 214 201 185 184 189 191 206 217 225 223 231 230 251 293 285 270 291 292 272 245 229 223 228 224 205
200 201 219 226 233 248 248 220 203 212 212 216 242 263 255 240 234 220 212 203 196 197 204 208 217 222 230 225 219 219 217 246 263 237 226 271 259 262 255 224 207 202 204
201 222 234 226 243 256 257 252 235 217 219 229 233 248 267 277 260 245 225 217 229 225 213 210 218 225 225 215 202 213 221 231 249 234 205 250 254 268 267 247 213 206 206
187 218 240 234 236 251 252 251 242 226 239 251 248 241 250 278 267 236 235 245 255 256 236 220 224 232 230 215 203 206 214 227 268 241 209 241 255 273 287 266 226 213 208
205 225 235 233 234 257 259 246 213 186 229 259 262 255 246 261 264 228 208 237 268 273 253 238 232 241 234 211 190 177 183 195 248 252 211 224 248 280 279 269 252 216 206
209 218 243 246 239 249 258 249 219 200 231 262 281 274 255 248 257 238 215 220 251 265 267 278 273 273 245 205 190 197 199 203 218 238 202 205 224 234 253 247 274 252 226